Location: Gradaro
(45.0833°N, 10.8833°E)
Time: 21:05:04
(UTC+00:00)

CZ-2C R/B - Pass Details

Date: 29 November 2020
Orbit: 784 x 870 km, 98.2° (Epoch: 19 January)

Event Time Altitude Azimuth Distance (km) Brightness Sun altitude
Rises 04:47:31 0° 135° (SE) 3,409 6.8 -18.0°
Reaches altitude 10° 04:50:08 10° 125° (SE) 2,465 6.2 -17.6°
Maximum altitude 04:54:52 31° 65° (ENE) 1,430 4.4 -16.8°
Drops below altitude 10° 04:59:32 10° 5° (N) 2,430 5.0 -16.0°
Sets 05:02:05 0° 356° (N) 3,353 5.6 -15.5°
